Weather History for KDXR - January, 2013

Change the Weather History Date:

Friday, January 18, 2013

  Actual Average Record
Temperature  
Mean Temperature 22 °F -  
Max Temperature 27 °F 31 °F 63 °F (1973)
Min Temperature 18 °F 12 °F -13 °F (1982)
Degree Days  
Heating Degree Days 42    
Moisture  
Dew Point 6 °F    
Average Humidity 48    
Maximum Humidity 62    
Minimum Humidity 37    
Precipitation  
Precipitation 0.00 in - - ()
Sea Level Pressure  
Sea Level Pressure 30.34 in    
Wind  
Wind Speed 9 mph (NW)    
Max Wind Speed 15 mph    
Max Gust Speed 21 mph    
Visibility 10 miles    
Events      
Averages and records for this station are not official NWS values.
T = Trace of Precipitation, MM = Missing Value Source: NWS Daily Summary

Daily Weather History Graph

Daily Weather History Graph

Search for Another Location

Airport or City:

Trip Planner

Search our weather history database for the weather conditions in past years. The results will help you decide how hot, cold, wet, or windy it might be!

Date:

Astronomy

Jan. 18, 2013 Rise Set
Actual Time 7:16 AM EST 4:53 PM EST
Civil Twilight 6:45 AM EST 5:23 PM EST
Nautical Twilight 6:11 AM EST 5:57 PM EST
Astronomical Twilight 5:38 AM EST 6:30 PM EST
Moon 10:47 AM EST (1/18) No Moon Set
Length of Visible Light 10h 37m
Length of Day
9h 37m
Waxing Crescent, 47% of the Moon is Illuminated
Jan 18
Waxing Crescent
Jan 18
First Quarter
Jan 26
Full
Feb 3
Last Quarter
Feb 10
New

Hourly Weather History & Observations

Time (EST) Temp. Windchill Dew Point Humidity Pressure Visibility Wind Dir Wind Speed Gust Speed Precip Events Conditions
12:53 AM 27.0 °F 17.3 °F 12.0 °F 53% 30.04 in 10.0 mi North 10.4 mph - N/A   Overcast
1:53 AM 26.1 °F 16.8 °F 10.9 °F 53% 30.10 in 10.0 mi NNE 9.2 mph - N/A   Overcast
2:53 AM 26.1 °F 19.4 °F 10.9 °F 53% 30.11 in 10.0 mi North 5.8 mph - N/A   Overcast
3:53 AM 25.0 °F 13.6 °F 10.9 °F 55% 30.12 in 10.0 mi North 12.7 mph - N/A   Overcast
4:53 AM 23.0 °F 13.1 °F 9.0 °F 55% 30.15 in 10.0 mi North 9.2 mph - N/A   Partly Cloudy
5:53 AM 21.0 °F 9.3 °F 8.1 °F 57% 30.21 in 10.0 mi NNW 11.5 mph - N/A   Overcast
6:53 AM 19.9 °F 9.3 °F 8.1 °F 60% 30.27 in 10.0 mi NNW 9.2 mph - N/A   Scattered Clouds
7:53 AM 19.9 °F 10.1 °F 7.0 °F 57% 30.32 in 10.0 mi NNW 8.1 mph - N/A   Scattered Clouds
8:53 AM 19.9 °F 6.2 °F 3.9 °F 50% 30.37 in 10.0 mi North 15.0 mph 20.7 mph N/A   Clear
9:53 AM 21.0 °F 9.3 °F 1.9 °F 44% 30.41 in 10.0 mi NNW 11.5 mph 20.7 mph N/A   Clear
10:53 AM 21.9 °F 11.0 °F -0.0 °F 38% 30.42 in 10.0 mi NNW 10.4 mph 18.4 mph N/A   Clear
11:53 AM 23.0 °F 13.9 °F 1.9 °F 40% 30.40 in 10.0 mi North 8.1 mph 17.3 mph N/A   Clear
12:53 PM 24.1 °F 13.7 °F 1.0 °F 37% 30.41 in 10.0 mi WNW 10.4 mph - N/A   Clear
1:53 PM 26.1 °F 19.4 °F 3.0 °F 37% 30.42 in 10.0 mi West 5.8 mph - N/A   Partly Cloudy
2:53 PM 26.1 °F 16.8 °F 3.0 °F 37% 30.42 in 10.0 mi NW 9.2 mph 17.3 mph N/A   Clear
3:53 PM 25.0 °F 17.1 °F 3.0 °F 39% 30.43 in 10.0 mi Variable 6.9 mph - N/A   Clear
4:53 PM 24.1 °F 18.2 °F 3.0 °F 40% 30.44 in 10.0 mi West 4.6 mph - N/A   Clear
5:53 PM 23.0 °F 17.0 °F 3.9 °F 44% 30.47 in 10.0 mi SW 4.6 mph - N/A   Clear
6:53 PM 21.0 °F - 7.0 °F 55% 30.48 in 10.0 mi Calm Calm - N/A   Clear
7:53 PM 18.0 °F - 7.0 °F 62% 30.47 in 10.0 mi Calm Calm - N/A   Clear
8:53 PM 21.0 °F 16.2 °F 5.0 °F 50% 30.45 in 10.0 mi South 3.5 mph - N/A   Clear
9:53 PM 24.1 °F 15.2 °F 5.0 °F 44% 30.44 in 10.0 mi South 8.1 mph - N/A   Clear
10:53 PM 24.1 °F 18.2 °F 6.1 °F 46% 30.43 in 10.0 mi SSW 4.6 mph - N/A   Clear
11:53 PM 25.0 °F 17.1 °F 9.0 °F 51% 30.40 in 10.0 mi SSW 6.9 mph - N/A   Overcast